Location: Pitton
(51.0667°N, 1.7000°W)
Time: 07:46:27
(UTC+00:00)

Cosmos 1766 - Pass Details

Date: 17 September 2019
Orbit: 521 x 546 km, 82.5° (Epoch: 20 October)

Event Time Altitude Azimuth Distance (km) Brightness Sun altitude
Exits shadow 20:45:08 61° 35° (NE) 615 3.4 -22.5°
Drops below altitude 10° 20:48:29 10° 13° (NNE) 1,798 6.2 -22.9°
Sets 20:50:38 0° 12° (NNE) 2,690 7.2 -23.2°
